#timestamp,LO_Frequency,Hit,StdDev 
1560589215.0,286046998.4,N
1560589215.9,286046998.4,N
1560589235.7,286046998.3,N
1560589255.6,286046998.5,N
1560589275.4,286046999.0,N
1560589295.2,286046998.9,N
1560589315.1,286046995.0,Y
1560589316.0,286046995.0,P
1560589335.8,286046996.2,N
1560589355.6,286046993.4,P
1560589375.5,286046993.7,N
1560589395.3,286046996.1,N
1560589415.1,286046995.0,N
1560589435.9,286046997.8,N
1560589455.7,286046995.4,N
1560589475.5,286046995.4,N
1560589495.4,286046993.8,Y
1560589515.2,286047000.5,P
1560589535.0,286047002.7,N
1560589535.9,286047002.7,N
1560589555.8,286047002.1,N
1560589575.6,286047002.4,N
1560589595.4,286047003.9,N
1560589615.3,286047003.0,N
1560589635.1,286047005.8,N
1560589655.8,286047005.7,N
1560589675.7,286047007.5,N
1560589695.5,286047006.6,N
1560589715.3,286047007.0,N
1560589735.2,286047007.0,N
1560589755.9,286047005.6,N
1560589775.7,286047003.4,N
1560589795.6,286047003.3,N
1560589815.4,286047007.4,N
1560589835.2,286047005.0,N
1560589855.1,286047005.7,N
1560589856.0,286047005.7,N
1560589875.8,286047005.4,N
1560589895.6,286047005.6,N
1560589915.5,286047003.0,N
1560589935.3,286047005.5,N
1560589955.1,286047003.7,N
1560589975.9,286047004.3,N
1560589995.7,286047001.3,N
1560590015.5,286046999.8,N
1560590035.4,286047002.3,N
1560590055.2,286047002.1,N
1560590075.0,286047003.8,N
1560590075.9,286047003.8,N
1560590095.8,286047003.8,N
1560590115.6,286047003.0,N
1560590135.4,286047007.3,Y
1560590155.3,286047003.6,P
1560590175.1,286047001.4,P
1560590176.0,286047001.4,N
1560590195.8,286047002.0,N
1560590215.7,286047002.6,N
1560590235.5,286047002.7,N
1560590255.3,286047002.1,N
1560590275.2,286047002.7,N
1560590295.9,286046999.9,N
1560590315.7,286047000.5,N
1560590335.6,286047000.7,N
1560590355.4,286046999.8,N
1560590375.2,286046999.7,N
1560590395.1,286047002.1,N
1560590396.0,286047002.1,N
1560590415.8,286047001.8,N
1560590435.6,286047002.0,N
1560590455.5,286047002.5,N
1560590475.3,286047001.6,N
1560590495.1,286047003.5,N
1560590515.9,286047003.5,N
1560590535.7,286047001.4,N
1560590555.5,286047002.6,N
1560590575.4,286047002.7,N
1560590595.2,286047000.6,N
1560590615.0,286047000.7,N
1560590615.9,286047000.7,N
1560590635.8,286047001.2,N
1560590655.6,286047000.9,N
1560590675.4,286047002.4,N
1560590695.3,286047000.5,N
1560590715.1,286047001.2,N
1560590716.0,286047001.2,N
1560590735.8,286046999.0,N
1560590755.7,286046999.2,N
1560590775.5,286046999.1,N
1560590795.3,286046997.7,N
1560590815.2,286046995.4,Y
1560590835.9,286046992.7,P
1560590855.7,286046988.7,N
1560590875.6,286046987.4,N
1560590895.4,286046988.1,N
1560590915.2,286046988.2,N
1560590935.1,286046985.4,Y
1560590936.0,286046985.4,P
1560590955.8,286046993.9,N
1560590975.6,286046994.5,N
1560590995.5,286046992.0,N
1560591015.3,286046992.1,N
1560591035.1,286046992.9,N
1560591055.9,286046992.7,N
1560591075.7,286046990.2,Y
1560591095.5,286046999.3,P
1560591115.4,286046998.9,N
1560591135.2,286046999.2,N
1560591155.0,286046999.1,N
1560591155.9,286046999.1,N
1560591175.8,286046996.9,N
1560591195.6,286046997.2,N
1560591215.4,286046996.7,N
1560591235.3,286046995.3,N
1560591255.1,286046995.8,N
1560591275.8,286046996.3,N
1560591295.7,286046996.4,N
1560591315.5,286046996.3,N
1560591335.3,286046993.4,Y
1560591355.2,286046997.8,P
1560591375.0,286046995.3,P
1560591375.9,286046995.3,P
1560591395.7,286046995.1,Y
1560591415.6,286046998.7,P
1560591435.4,286046999.0,N
1560591455.2,286046999.1,N
1560591475.1,286046998.4,N
1560591476.0,286046998.4,N
1560591495.8,286046999.0,N
1560591515.7,286046997.9,N
1560591535.5,286046995.3,Y
1560591555.3,286046998.6,P
1560591575.2,286046999.0,P
1560591595.9,286046997.2,P
1560591615.7,286046997.1,Y
1560591635.6,286046998.4,P
1560591655.4,286046998.5,P
1560591675.2,286046998.1,P
1560591695.1,286046996.7,Y
1560591696.0,286046996.7,P
1560591715.8,286046998.9,N
1560591735.6,286046998.3,N
1560591755.5,286046998.9,N
1560591775.3,286046998.8,N
1560591795.1,286046999.6,N
1560591815.9,286047000.1,N
1560591835.7,286047002.4,N
1560591855.5,286047003.6,N
1560591875.4,286047007.1,Y
1560591895.2,286047008.8,P
1560591915.0,286047010.7,N
1560591916.0,286047010.7,N
1560591935.8,286047010.0,N
1560591955.6,286047007.7,N
1560591975.5,286047010.7,N
1560591995.3,286047010.6,N
1560592015.1,286047010.5,N
1560592035.9,286047010.0,N
1560592055.7,286047009.4,N
1560592075.5,286047011.6,Y
1560592095.4,286047005.5,P
1560592115.2,286047005.7,P
1560592135.0,286047007.1,P
1560592135.9,286047007.1,Y
1560592155.8,286046998.6,P
1560592175.6,286046999.0,N
1560592195.4,286046997.8,N
1560592215.3,286046996.7,N
1560592235.1,286046999.3,N
1560592236.0,286046999.3,N
1560592255.8,286046999.6,N
1560592275.7,286046999.3,N
1560592295.5,286047001.0,N
1560592315.3,286047000.3,N
1560592335.2,286047002.8,N
1560592355.9,286047002.6,N
1560592375.7,286046999.9,N
1560592395.6,286047002.2,N
1560592415.4,286046999.9,N
1560592435.2,286046999.9,N
1560592455.1,286047000.5,N
1560592456.0,286047000.5,N
1560592475.8,286046999.8,N
1560592495.6,286046998.2,N
1560592515.5,286047001.1,N
1560592535.3,286046999.1,N
1560592555.1,286047001.1,N
1560592575.9,286047000.7,N
1560592595.7,286046999.5,N
1560592615.5,286046998.4,N
1560592635.4,286046999.2,N
1560592655.2,286046998.2,N
1560592675.0,286047002.7,N
1560592675.9,286047002.7,N
1560592695.8,286047002.4,N
1560592715.6,286047002.3,N
1560592735.4,286047001.9,N
1560592755.3,286047004.1,N
1560592775.1,286047005.6,Y
1560592795.8,286047004.0,P
